CZ-6A DEB

Satellite information

Favourite Embed

Satellite Type and Status

DEBRISIN ORBIT

Key statistics

Satellite CZ-6A DEB at a glance.

Uptime

1075

Days in orbit

Revolutions

≈ 14.2

Per day

Orbit

SSO

Sun Synchronous Orbit

Inclination

98.9

Latest

Satellite identification and parameters

Extended collection of information and parameters for CZ-6A DEB.

Object identification

Identified? True

Debris? True

Object name: CZ-6A DEB

International designator: 2022-151MG

Object number (NORAD): 54580

Object ID (CCSDS): 54580

Country: PEOPLES REPUBLIC OF CHINA (PRC)

Current information (Y/N): Y

RCS size: SMALL

Orbital parameters

Period: 101.331 minutes

Inclination: 98.8693 deg

SMA: 7199.808 km

Apoapsis: 885.598 km

Periapsis: 757.748 km

RAAN: 302.9422 deg

Eccentricy: 0.00887869

Argument of periapsis: 333.1936 deg

Mean anomaly: 26.4666 deg

Mean motion: 14.2108926 rev/day

Mean motion (dot): 0.00010182 rev/day2

B* drag term: 0.0045199088 1/REarth

Two-line elements (TLE)

Creation date: Oct. 21, 2025, 3:26 a.m.

Reference frame: TEME

Reference center: EARTH

Epoch: Oct. 20, 2025, 6:36 p.m. UTC

TLE line 0: 0 CZ-6A DEB

TLE line 1: 1 54580U 22151MG 25293.77560976 .00010182 00000-0 45199-2 0 9993

TLE line 2: 2 54580 98.8693 302.9422 0088787 333.1936 26.4666 14.21089260150778

Live tracking on map

Real-time ground track for satellite CZ-6A DEB.

In-orbit conjunctions

A list of the most updated potential collisions computed for object CZ-6A DEB.

Target Orbit TCA Probability of collision Miss distance Type
SL-8 R/B LEO 2025-08-26 15:31:23 0.0002757191 273.0 (m) ROCKET BODY
DELTA 1 DEB SSO 2025-08-08 01:25:05 0.0002998512 85.0 (m) DEBRIS
COSMOS 1452 LEO 2025-04-06 08:09:42 0.001079936 184.0 (m) PAYLOAD

Associated space launch

Chinese satellite reported for atmospheric/ocean/environmental/spatial parameter research purposes, details TBD.

CZ-6A DEB was lifted into orbit during the mission ‘Long March 6A | Yunhai 3’, on board a Long March 6A space rocket.

The launch took place on Nov. 11, 2022, 10:52 p.m. from Launch Complex 9A.

For more information about the launch, click the button.

Launch to space Long March 6A | Yunhai 3
Long March 6A | Yunhai 3

Agency: N/A

Status: Launch Successful

Launch date: Nov. 11, 2022, 10:52 p.m. UTC

Rocket: Long March 6A

Launch pad: Launch Complex 9A

Location: Taiyuan Satellite Launch Center, People's Republic of China

...

Latest news about this satellite

There are no fresh news available about this satellite. Check back as we update our databases every day.


Newsletter sign-up

Weekly statistics, charts and insights to help you stay on top of the space industry.